Vertical_Velocity
-0 -0 -0 -0 -0 0 0 0 -0 -1 -1 -1 -1 -1 -2 -1 -1 -1 -1 -1 -1 -1 -1 -0 -1 -1 -0 -1 -1 -2 -1 -1 -2
0 -0 0 -0 0 0 -0 0 -1 -0 -0 -1 -1 -1 -1 -1 -1 -1 -1 -2 -2 -2 -3 -2 -2 -1 -1 -2 -2 -2 -1 -2 -1
-0 -1 -0 -1 -0 0 0 0 -0 1 0 1 1 0 1 0 0 -0 -1 -1 -0 -1 -2 -3 -2 -2 -2 -2 -1 -2 -1 -1 -3
1 -1 -0 -0 -1 -0 -0 -1 -1 -1 -1 -1 -1 -1 -1 -1 -1 -1 -1 -2 -2 -1 -1 -3 -2 -2 -1 -0 -0 -1 -1 -1 -1
0 0 -0 -1 -1 -1 0 -1 -1 -1 -1 -1 -1 -1 -1 -1 -0 -0 0 -0 -1 -1 -1 -1 -2 -2 -1 0 0 1 -0 -0 -0
1 1 -1 -0 -1 -1 0 -0 -1 -1 -1 -1 -1 -0 -1 -0 -1 -1 -0 -1 -1 -1 -2 -2 -2 -2 -2 -0 -1 0 1 1 1
-0 1 -1 -1 -1 -1 -1 -1 -2 -1 -1 -1 -0 -1 -1 -1 -0 -1 -1 -0 -0 0 0 -1 -1 -1 -1 -0 1 1 0 -0 0
-1 -0 0 -1 -1 -1 -1 -0 -1 -1 -0 -1 -0 -1 -0 -1 -1 -1 -1 -0 -0 0 0 -1 -1 0 -1 -1 -1 0 1 0 0
-2 -1 1 -0 -2 -2 -2 -1 -1 -1 -1 -0 0 0 0 0 1 1 1 1 -0 -0 -0 -1 -1 -0 0 -1 -1 0 -0 -0 -0
-1 -1 2 -1 -2 -2 -2 -2 -1 -2 -2 -1 -1 -1 -1 -0 -0 -0 -1 -1 -1 -0 -0 -1 -1 -1 0 -0 -1 -1 -0 -1 -0
-3 -3 -3 2 -1 -2 -3 -2 -1 -2 -2 -2 -2 -2 -1 -1 -1 -1 -1 -1 0 -1 -1 -0 -0 -0 -1 0 0 -0 -1 -0 -1
-1 -5 -3 -0 0 -1 -2 -3 -2 -1 -3 -3 -3 -2 -3 -3 -2 -2 -2 -1 -2 -2 -2 -1 -1 -1 -1 -0 1 0 -1 -0 -1
0 -0 -2 -3 -0 -1 -2 -2 -2 -2 -1 -2 -2 -3 -3 -3 -3 -3 -3 -2 -1 -2 -2 -1 -1 -1 -1 -0 -0 -0 0 -1 -1
2 1 0 -2 -1 -0 -2 -3 -2 -1 -2 -2 -2 -3 -3 -2 -3 -2 -3 -3 -2 -1 0 -0 -1 -1 -1 -0 -0 -0 -1 0 -2
-0 1 0 -1 -2 -1 -3 -3 -3 -2 -3 -2 -2 -3 -2 -3 -3 -2 -2 -1 -2 -1 -1 -0 -1 -1 -2 -1 -1 -1 -1 -1 -1
-3 -2 1 -1 -2 -3 -4 -4 -4 -2 -1 -2 -1 -1 -1 -1 -2 -2 -2 -1 -1 -1 -1 -1 -1 -2 -2 -1 -1 -1 -0 1 -0
1 -1 1 -0 -1 -4 -2 -2 -2 -1 -2 -1 -1 -0 -1 0 -1 -2 -3 -1 1 -0 -1 -1 -2 -2 -3 -3 -4 -3 -2 -3 -3
2 1 -2 -1 -2 -3 -1 -2 -6 -2 -2 -3 1 -1 -1 -0 -2 -0 -0 -2 -1 -1 -3 -2 1 -0 -1 -1 -4 -3 -2 -1 -1
0 -1 -2 1 -1 -2 -3 0 -1 -1 -0 -2 -2 -1 -2 -2 3 -3 0 0 -2 -1 -2 -2 -3 -1 0 -1 0 1 -1 -0 -1
1 2 3 4 -0 2 -4 -4 -3 -1 -1 -0 -1 1 1 -1 -0 -0 -0 1 -1 1 1 -2 -3 -3 -2 -3 -4 -2 -2 -2 -1
Height
5858 5859 5859 5860 5860 5860 5860 5859 5858 5858 5858 5857 5857 5856 5855 5855 5854 5853 5852 5852 5851 5851 5850 5849 5849 5848 5847 5846 5846 5845 5844 5843 5842
5856 5857 5858 5858 5858 5858 5858 5858 5857 5857 5856 5856 5855 5855 5854 5853 5852 5852 5851 5850 5849 5848 5848 5847 5846 5845 5844 5843 5842 5842 5841 5840 5839
5853 5854 5855 5855 5856 5856 5856 5856 5855 5855 5854 5854 5853 5853 5852 5851 5850 5850 5849 5848 5847 5846 5845 5845 5844 5842 5841 5840 5839 5838 5838 5837 5836
5850 5851 5852 5852 5853 5853 5853 5853 5853 5853 5852 5851 5851 5850 5850 5849 5848 5847 5846 5846 5845 5844 5842 5841 5841 5839 5837 5836 5835 5834 5833 5832 5832
5847 5848 5849 5849 5849 5850 5850 5850 5849 5849 5849 5848 5848 5847 5846 5845 5844 5843 5843 5842 5841 5840 5839 5838 5836 5835 5834 5833 5832 5830 5829 5828 5827
5844 5845 5845 5846 5846 5846 5846 5846 5845 5845 5845 5845 5844 5843 5842 5841 5840 5840 5839 5838 5837 5836 5835 5833 5832 5831 5829 5829 5827 5826 5824 5823 5822
5840 5841 5841 5842 5842 5842 5842 5842 5842 5841 5841 5840 5840 5839 5838 5837 5837 5836 5835 5834 5832 5831 5830 5829 5827 5826 5824 5823 5822 5821 5819 5817 5816
5836 5837 5838 5838 5839 5839 5839 5839 5839 5838 5837 5837 5836 5835 5835 5834 5833 5832 5830 5829 5828 5826 5825 5824 5822 5821 5819 5817 5816 5814 5813 5811 5810
5832 5833 5834 5834 5834 5835 5835 5835 5835 5834 5834 5833 5832 5832 5831 5830 5829 5827 5826 5824 5823 5821 5820 5818 5816 5815 5813 5811 5809 5807 5806 5804 5803
5827 5828 5830 5830 5830 5831 5831 5831 5831 5831 5830 5829 5828 5827 5826 5825 5824 5823 5821 5819 5818 5816 5814 5812 5810 5808 5806 5804 5802 5800 5798 5796 5794
5821 5823 5824 5826 5826 5826 5826 5827 5827 5826 5826 5825 5824 5823 5822 5820 5819 5817 5815 5814 5812 5810 5807 5805 5803 5801 5799 5796 5794 5792 5790 5788 5786
5815 5817 5819 5820 5821 5821 5822 5821 5821 5821 5821 5820 5819 5818 5817 5815 5813 5811 5809 5807 5805 5803 5801 5798 5796 5793 5791 5788 5786 5783 5781 5779 5776
5808 5810 5812 5814 5815 5816 5816 5816 5816 5816 5815 5815 5814 5813 5811 5809 5807 5805 5802 5800 5798 5795 5793 5790 5788 5785 5783 5780 5777 5775 5772 5769 5766
5802 5804 5805 5807 5809 5810 5810 5810 5810 5810 5810 5809 5808 5806 5804 5802 5800 5798 5795 5792 5789 5787 5784 5781 5779 5776 5773 5770 5767 5764 5761 5758 5755
5796 5798 5799 5800 5801 5803 5803 5803 5803 5803 5803 5802 5801 5799 5796 5794 5791 5789 5786 5784 5781 5778 5775 5772 5769 5766 5763 5760 5756 5753 5750 5746 5741
5789 5791 5792 5793 5794 5794 5795 5796 5796 5796 5796 5795 5793 5790 5788 5785 5782 5780 5777 5775 5771 5768 5765 5762 5759 5756 5752 5748 5745 5741 5737 5731 5726
5781 5783 5785 5785 5786 5786 5788 5788 5789 5789 5788 5787 5785 5782 5780 5776 5774 5771 5768 5765 5762 5759 5755 5751 5748 5744 5740 5735 5730 5725 5720 5714 5709
5772 5775 5776 5777 5778 5779 5780 5780 5780 5780 5779 5778 5776 5773 5770 5767 5764 5761 5757 5754 5751 5747 5743 5740 5736 5731 5727 5722 5716 5710 5704 5698 5692
5762 5765 5767 5769 5769 5771 5771 5771 5770 5769 5768 5767 5766 5763 5760 5757 5755 5751 5747 5743 5739 5736 5732 5727 5722 5718 5712 5707 5700 5694 5687 5680 5673
5753 5756 5758 5759 5761 5762 5762 5762 5761 5760 5759 5757 5754 5752 5750 5747 5744 5740 5737 5732 5727 5723 5718 5713 5707 5701 5695 5689 5682 5675 5667 5660 5653